COSMOS 1275 DEB, 27735

Orbit data source: Space-Track

COSMOS 1275 DEB, 27735 is space debris in LEO originally from a launch on Thu, 04 Jun 1981 UTC launched from the Plesetsk Missile And Space Complex (PKMTR). Debris objects in space refer to the collection of defunct objects orbiting the Earth. Examples of debris include non-operational satellites, rocket bodies, and fragments generated from explosions, collisions, or faulty payload assembly.

Loading next visibility...
Identifier
27735, 1981-053MQ
Orbit
LEO
Country
Flag of CISCIS
Related business
Manufacturer
Unknown
Mission
Spacecraft
Bus & Motor
Unknown
Mass
Unknown
Launch date (UTC)
1981-06-04 (45 years ago)
Launch vehicle
Unknown
Launch site
Plesetsk Missile And Space Complex (PKMTR)
Object type
Payload
Rocket body
Debris
Shape & HBR
Unknown shape, 0.1 m
Radar Cross Section
Medium (>0.1 m² and <1 m²)

Expand to show TLE details & history
Last TLE update: 20 hours ago

TLE from 20 hours ago
0 COSMOS 1275 DEB
1 27735U 81053MQ  26149.68732117  .00001746  00000-0  14814-2 0  9996
2 27735  83.0472 228.7677 0091064 277.5599 237.2317 13.85080417622274
Epoch: 2026-05-29T16:29Z
TLE epoch observation values (Epoch: 2026-05-29T16:29:44.549Z)
Latitude
25.90616°
Longitude
-89.2601°
Altitude
985.607 km
Speed
7.343 km/s
True Right ascension
03h 01m 33s
True Declination
25° 46' 32"
Sunlit
Object was in daylight at epoch
Visualization orbit readout
Latitude
Unknown
Longitude
Unknown
Altitude
Unknown
Speed
Unknown
Apparent Right ascension
Unknown
Apparent Declination
Unknown
Sunlit
N/A
Visualization observer readout
Local Sidereal Time
22:19:57
Azimuth
Unknown
Elevation
Unknown
Doppler factor
Unknown
Orbital elements
Apogee altitude
1,009.722 km
Perigee altitude
876.383 km
Semi-major axis
7,321.19 km
Eccentricity
0.00911
Inclination
83.0472°
RAAN
228.7677°
Arg. of periapsis
277.5599°
True anomaly
236.35965°
Mean anomaly
237.2317°
Eccentric anomaly
236.79514°
Mean motion
3.46474 °/min
Orbital period
103.9 mins
BSTAR
0.0014814
Loading maneuver chart data...
Computing Atmospheric mass density...

Documentation

Showing up to 5 results
|